[[{"header":{"parameterUnit":"m.s-1","parameterCategory":1,"la1":30.2991,"la2":30.254,"lo1":-89.0895,"lo2":-89.0444,"dy":0.0017,"dx":0.0017,"nx":28,"ny":28,"refTime":"2025-04-29T21:00:00:Z","depth":0,"parameterNumber":2,"parameterNumberName":"U-component_of_WINDS"},"data":[0,0,0,0,0,0,0,0,0,0,0,0,0,0,0,0,0,0,0,0,0,0,0,0,0,0,0,0,0,0,0,0,0,0,0,0,0,0,0,0,0,0,0,0,0,0,0,0,0,0,0,0,0,0,0,0,0,0,-0.8554,-0.8556,0,-0.8678,-0.8679,-0.8681,-0.8742,-0.8742,-0.8742,-0.8742,-0.8872,-0.8876,-0.8879,0,0,0,0,0,0,0,0,0,0,0,0,0,-0.8376,-0.8379,-0.8554,-0.8556,-0.8557,-0.8678,-0.8679,-0.8681,-0.8742,-0.8742,-0.8742,-0.8742,-0.8871,-0.8875,-0.8879,0,0,0,0,0,0,0,0,0,0,0,0,0,-0.8472,-0.838,-0.8554,-0.8602,-0.8608,-0.8677,-0.8679,-0.8682,-0.8742,-0.8742,-0.8742,-0.8742,-0.887,-0.8875,-0.888,-0.8912,0,0,-0.8896,-0.8898,0,0,0,0,0,0,0,0,-0.8466,-0.8478,-0.8594,-0.8599,-0.8605,-0.8695,-0.8664,-0.8759,-0.8742,-0.8691,-0.8742,-0.8742,-0.8813,-0.8823,-0.8847,-0.8918,-0.8924,-0.8896,-0.8899,-0.8902,-0.8903,0,0,0,0,0,0,0,-0.846,-0.8473,-0.8603,-0.8595,-0.8603,-0.8619,-0.8633,-0.8682,-0.8751,-0.8696,-0.8701,-0.8714,-0.8817,-0.8841,-0.885,-0.8925,-0.8896,-0.8901,-0.8904,-0.8906,-0.9031,-0.9031,0,0,0,0,0,0,-0.8445,-0.8467,-0.8599,-0.8607,-0.8534,-0.8623,-0.8638,-0.8666,-0.8751,-0.8763,-0.8714,-0.8717,-0.8833,-0.8844,-0.8855,-0.8899,-0.8902,-0.8906,-0.8909,-0.9031,-0.9031,-0.9032,0,0,0,0,0,0,-0.8441,-0.8456,-0.8594,-0.8539,-0.8558,-0.8626,-0.8657,-0.8668,-0.8693,-0.8764,-0.8777,-0.8726,-0.8833,-0.8848,-0.8897,-0.8904,-0.8909,-0.8914,-0.9031,-0.9031,-0.9031,-0.8986,0,0,0,0,0,0,-0.8435,-0.8454,-0.8465,-0.8538,-0.856,-0.8633,-0.8657,-0.8671,-0.8702,-0.8706,-0.8779,-0.8791,-0.8834,-0.8889,-0.8903,-0.8911,-0.8918,-0.9031,-0.9031,-0.9031,-0.8987,-0.8985,-0.8982,0,0,0,0,0,-0.8429,-0.8448,-0.8466,-0.8481,-0.8576,-0.8633,-0.8646,-0.8694,-0.8702,-0.8715,-0.8761,-0.8789,-0.8901,-0.8894,-0.8909,-0.892,-0.903,-0.9031,-0.9031,-0.8988,-0.8985,-0.8982,0,0,0,0,0,0,-0.8375,-0.8459,-0.8479,-0.8522,-0.857,-0.8644,-0.8662,-0.8689,-0.8736,-0.8739,-0.8797,-0.8813,-0.8858,-0.8894,-0.8884,-0.8956,-0.8969,-0.8972,-0.8931,-0.8928,-0.8926,-0.8916,-0.8922,0,0,0,0,0,-0.8368,-0.8407,-0.8478,-0.851,-0.8533,-0.8593,-0.862,-0.8652,-0.8705,-0.8726,-0.8775,-0.8826,-0.8873,-0.8903,-0.895,-0.8993,-0.9011,-0.9008,-0.9005,-0.9003,-0.9006,-0.9033,-0.9033,-0.9033,-0.9033,-0.9033,0,0,-0.8355,-0.8405,-0.8426,-0.85,-0.8541,-0.8581,-0.8609,-0.865,-0.8681,-0.8732,-0.8782,-0.882,-0.8881,-0.8928,-0.8951,-0.896,-0.901,-0.9004,-0.9001,-0.9005,-0.9033,-0.9033,-0.9033,-0.9034,-0.9033,-0.9033,0,0,-0.8351,-0.8392,-0.8423,-0.8464,-0.8525,-0.8565,-0.8573,-0.8643,-0.867,-0.8721,-0.876,-0.8799,-0.8878,-0.892,-0.8952,-0.8965,-0.8993,-0.8979,-0.8967,-0.8992,-0.8992,-0.8992,-0.8998,-0.8999,-0.8981,-0.8981,-0.8981,0,-0.8327,-0.8387,-0.8436,-0.8475,-0.8507,-0.8555,-0.8588,-0.8626,-0.8699,-0.8721,-0.8729,-0.8831,-0.8875,-0.8933,-0.8936,-0.896,-0.8972,-0.897,-0.8988,-0.8989,-0.899,-0.8996,-0.8998,-0.8979,-0.8979,-0.8979,-0.8979,0,-0.8355,-0.8396,-0.8415,-0.8484,-0.8518,-0.8554,-0.861,-0.864,-0.867,-0.8709,-0.8762,-0.8817,-0.8876,-0.8892,-0.8922,-0.8955,-0.8959,-0.8976,-0.899,-0.8987,-0.8994,-0.8996,-0.8976,-0.8976,-0.8977,-0.8978,0,0,-0.832,-0.8416,-0.8422,-0.8455,-0.8527,-0.8561,-0.86,-0.8657,-0.8681,-0.8731,-0.8766,-0.8833,-0.885,-0.8886,-0.8922,-0.8944,-0.8952,-0.896,-0.8962,-0.8957,-0.8994,-0.898,-0.8981,-0.8972,-0.8972,-0.8973,-0.8989,0,-0.8326,-0.8396,-0.8443,-0.8495,-0.8535,-0.8581,-0.8616,-0.8664,-0.8703,-0.8744,-0.8787,-0.8833,-0.8852,-0.8875,-0.8899,-0.8946,-0.8961,-0.8946,-0.9006,-0.9008,-0.8989,-0.8985,-0.897,-0.8982,-0.8992,-0.8992,-0.8992,0,-0.8343,-0.839,-0.8446,-0.8515,-0.8534,-0.8563,-0.862,-0.8658,-0.8715,-0.8742,-0.8782,-0.8818,-0.8863,-0.8873,-0.8937,-0.8926,-0.8954,-0.8981,-0.8982,-0.899,-0.9,-0.8993,-0.8987,-0.8989,-0.8997,-0.8997,-0.8996,0,-0.8312,-0.8391,-0.8435,-0.8461,-0.8542,-0.8562,-0.8597,-0.8654,-0.8686,-0.8736,-0.8758,-0.8813,-0.8843,-0.8886,-0.8937,-0.894,-0.8996,-0.901,-0.9021,-0.9019,-0.9031,-0.9029,-0.903,-0.9048,-0.9048,-0.9047,-0.9047,0,-0.8315,-0.8347,-0.8422,-0.8449,-0.8488,-0.8542,-0.8579,-0.8618,-0.8669,-0.8706,-0.875,-0.8784,-0.8849,-0.8891,-0.8931,-0.8979,-0.8992,-0.9016,-0.9026,-0.9012,-0.9009,-0.9031,-0.9032,-0.9048,-0.9048,-0.9048,-0.9048,0,-0.8287,-0.8338,-0.839,-0.8462,-0.8481,-0.8507,-0.857,-0.8599,-0.864,-0.8686,-0.87,-0.8765,-0.8818,-0.8873,-0.8944,-0.8971,-0.9017,-0.9031,-0.8997,-0.9003,-0.9011,-0.901,-0.9026,-0.9032,-0.9045,-0.9044,-0.9044,0,-0.8285,-0.8312,-0.8387,-0.8414,-0.8447,-0.8491,-0.8523,-0.8578,-0.8611,-0.8678,-0.87,-0.8755,-0.8802,-0.8884,-0.8939,-0.8995,-0.9011,-0.9013,-0.902,-0.9005,-0.9012,-0.901,-0.9013,-0.901,-0.901,-0.901,-0.9009,0,-0.8277,-0.8301,-0.8346,-0.84,-0.8437,-0.8483,-0.853,-0.855,-0.8615,-0.865,-0.8703,-0.874,-0.8813,-0.8868,-0.893,-0.8968,-0.9,-0.9007,-0.9013,-0.8998,-0.8978,-0.899,-0.8992,-0.9006,-0.9007,-0.9007,-0.9007,-0.9007,-0.8263,-0.8289,-0.8346,-0.8395,-0.8436,-0.8479,-0.851,-0.8555,-0.86,-0.8663,-0.8693,-0.8747,-0.8806,-0.8892,-0.893,-0.8974,-0.8983,-0.8991,-0.8993,-0.8994,-0.8991,-0.897,-0.8985,-0.8986,-0.8986,-0.8986,-0.8986,0,-0.8258,-0.8297,-0.8341,-0.8405,-0.8444,-0.847,-0.8524,-0.8555,-0.8601,-0.8653,-0.8698,-0.8761,-0.8815,-0.8874,-0.8932,-0.8956,-0.8972,-0.897,-0.8969,-0.8977,-0.8979,-0.8969,-0.8956,-0.8956,-0.8956,-0.8956,-0.8956,-0.8956,-0.8259,-0.8305,-0.8336,-0.8403,-0.8442,-0.8494,-0.8523,-0.8564,-0.8605,-0.8673,-0.8717,-0.8755,-0.881,-0.8873,-0.8924,-0.8941,-0.8961,-0.8953,-0.8974,-0.8975,-0.8977,-0.8979,-0.897,-0.8957,-0.8957,-0.8969,-0.8969,-0.8969]},{"header":{"parameterUnit":"m.s-1","parameterCategory":1,"la1":30.2991,"la2":30.254,"lo1":-89.0895,"lo2":-89.0444,"dy":0.0017,"dx":0.0017,"nx":28,"ny":28,"refTime":"2025-04-29T21:00:00:Z","depth":0,"parameterNumber":3,"parameterNumberName":"V-component_of_WINDS"},"data":[0,0,0,0,0,0,0,0,0,0,0,0,0,0,0,0,0,0,0,0,0,0,0,0,0,0,0,0,0,0,0,0,0,0,0,0,0,0,0,0,0,0,0,0,0,0,0,0,0,0,0,0,0,0,0,0,0,0,2.296,2.296,0,2.3005,2.3006,2.3006,2.2992,2.2991,2.299,2.2989,2.3034,2.3036,2.3038,0,0,0,0,0,0,0,0,0,0,0,0,0,2.2858,2.286,2.296,2.296,2.2961,2.3005,2.3006,2.3007,2.2992,2.2991,2.299,2.2988,2.3033,2.3036,2.3038,0,0,0,0,0,0,0,0,0,0,0,0,0,2.2903,2.2861,2.2959,2.2959,2.2959,2.3005,2.3006,2.3007,2.2992,2.2991,2.2989,2.2988,2.3032,2.3035,2.3039,2.3087,0,0,2.3048,2.305,0,0,0,0,0,0,0,0,2.29,2.2906,2.2958,2.2959,2.2959,2.2991,2.2987,2.3034,2.2993,2.298,2.2989,2.2987,2.3021,2.3025,2.3037,2.3089,2.3091,2.3048,2.305,2.3052,2.3053,0,0,0,0,0,0,0,2.2897,2.2904,2.2978,2.2959,2.296,2.2956,2.2961,2.2995,2.3008,2.2981,2.298,2.2985,2.3021,2.3034,2.3037,2.3092,2.3048,2.3051,2.3053,2.3054,2.3187,2.3189,0,0,0,0,0,0,2.2894,2.2902,2.2976,2.2979,2.2926,2.2959,2.2964,2.2983,2.3007,2.301,2.2987,2.2985,2.3029,2.3034,2.3039,2.3098,2.3052,2.3055,2.3056,2.3186,2.3188,2.319,0,0,0,0,0,0,2.2892,2.2901,2.2974,2.294,2.2949,2.2962,2.2983,2.2984,2.2997,2.3012,2.3014,2.2997,2.3028,2.3035,2.3076,2.3099,2.3056,2.3059,2.3184,2.3186,2.3189,2.3216,0,0,0,0,0,0,2.2889,2.29,2.2919,2.2941,2.2951,2.3011,2.2984,2.2986,2.3003,2.3,2.3023,2.3025,2.3027,2.3071,2.3079,2.3103,2.3061,2.3182,2.3185,2.3188,2.3213,2.3219,2.3224,0,0,0,0,0,2.2885,2.2924,2.292,2.2929,2.2975,2.3012,2.3018,2.302,2.3005,2.3024,2.3033,2.3024,2.3096,2.3075,2.3084,2.3109,2.318,2.3184,2.3188,2.321,2.3217,2.3224,0,0,0,0,0,0,2.2904,2.2927,2.2922,2.297,2.2989,2.3009,2.3033,2.3028,2.3052,2.3049,2.305,2.3055,2.3098,2.3108,2.3085,2.3158,2.3136,2.3141,2.315,2.3157,2.3162,2.3158,2.3064,0,0,0,0,0,2.2913,2.2942,2.296,2.3,2.301,2.302,2.3036,2.3037,2.3057,2.3065,2.3077,2.3096,2.3123,2.3141,2.3166,2.3214,2.3219,2.3236,2.3242,2.3246,2.3251,2.3277,2.3285,2.3202,2.3202,2.3202,0,0,2.2933,2.295,2.2967,2.3004,2.3019,2.3048,2.3027,2.3059,2.308,2.3069,2.3109,2.3119,2.314,2.3185,2.3206,2.3195,2.3275,2.3251,2.3254,2.3256,2.3282,2.3289,2.3296,2.3204,2.3204,2.3203,0,0,2.2984,2.3,2.3035,2.3051,2.3074,2.3081,2.3089,2.3111,2.3117,2.3157,2.315,2.3175,2.3221,2.3237,2.3251,2.3309,2.3301,2.3317,2.3346,2.3372,2.3378,2.3384,2.3405,2.3412,2.3322,2.3322,2.3322,0,2.3006,2.305,2.3053,2.3086,2.3102,2.3095,2.313,2.3145,2.3175,2.3186,2.3174,2.3232,2.3246,2.3295,2.3309,2.3321,2.333,2.3314,2.3377,2.3383,2.3389,2.3408,2.3416,2.3324,2.3324,2.3323,2.3323,0,2.3075,2.3106,2.3131,2.3161,2.3181,2.3214,2.3222,2.3242,2.3241,2.3248,2.3289,2.3306,2.3335,2.3347,2.3346,2.3395,2.3388,2.3377,2.3354,2.3398,2.3417,2.3424,2.3326,2.3326,2.3325,2.3325,0,0,2.3138,2.317,2.318,2.3193,2.3219,2.3243,2.3276,2.3305,2.3321,2.3343,2.337,2.341,2.34,2.3416,2.3417,2.344,2.3485,2.3426,2.3426,2.3436,2.354,2.3548,2.3557,2.348,2.3482,2.3483,2.3538,0,2.3191,2.325,2.3254,2.3307,2.3336,2.3329,2.3358,2.3377,2.3386,2.3411,2.342,2.3448,2.3432,2.3442,2.3464,2.3475,2.3506,2.3471,2.3506,2.3507,2.35,2.3567,2.3575,2.3626,2.3546,2.3547,2.3548,0,2.326,2.3284,2.3341,2.3363,2.3375,2.3401,2.3428,2.3452,2.3473,2.3478,2.3497,2.3495,2.3529,2.3506,2.3552,2.3529,2.3543,2.3551,2.3553,2.3555,2.3529,2.357,2.3643,2.365,2.3559,2.3558,2.3557,0,2.33,2.3347,2.3386,2.3398,2.3426,2.3444,2.3456,2.3476,2.3493,2.3517,2.3528,2.3555,2.357,2.3591,2.3597,2.3579,2.3643,2.3621,2.3647,2.3647,2.366,2.3659,2.3735,2.3671,2.3671,2.3671,2.3671,0,2.3358,2.3392,2.3405,2.3429,2.3468,2.3472,2.351,2.3521,2.3539,2.3565,2.3562,2.3586,2.3592,2.3618,2.3622,2.366,2.3667,2.3671,2.3672,2.3671,2.3671,2.368,2.3677,2.3673,2.3672,2.3672,2.3672,0,2.3408,2.3418,2.3461,2.3484,2.349,2.3517,2.3536,2.356,2.3568,2.3601,2.3609,2.3622,2.3652,2.366,2.3696,2.3699,2.3744,2.3741,2.3737,2.3736,2.3763,2.376,2.3847,2.3859,2.3787,2.3788,2.3788,0,2.3445,2.3471,2.3497,2.3514,2.3528,2.3556,2.3574,2.358,2.3598,2.3625,2.3645,2.3675,2.3699,2.3748,2.376,2.3787,2.3785,2.3814,2.3789,2.3788,2.3785,2.3783,2.3786,2.3818,2.3819,2.382,2.382,0,2.3508,2.3511,2.3538,2.3566,2.3588,2.361,2.3631,2.3646,2.3655,2.3676,2.3707,2.3726,2.3763,2.3792,2.382,2.3832,2.3828,2.3828,2.3836,2.3835,2.3831,2.3833,2.3749,2.3826,2.3825,2.3825,2.3824,2.3824,2.3552,2.3575,2.3597,2.3627,2.3644,2.3664,2.3687,2.3699,2.3725,2.3756,2.3758,2.3792,2.3813,2.385,2.3863,2.389,2.3881,2.3892,2.3895,2.3897,2.3899,2.3828,2.3895,2.3895,2.3895,2.3894,2.3894,0,2.3615,2.3629,2.3656,2.3686,2.3709,2.3704,2.3728,2.3747,2.3777,2.3797,2.3822,2.3857,2.3886,2.3902,2.393,2.3948,2.3947,2.3956,2.3954,2.3957,2.3906,2.3896,2.3956,2.3956,2.3956,2.3956,2.3956,2.3956,2.365,2.3689,2.3696,2.3743,2.3757,2.379,2.3804,2.3823,2.3839,2.388,2.3904,2.3914,2.3932,2.3962,2.3989,2.3992,2.4003,2.4013,2.4015,2.3967,2.396,2.3954,2.3945,2.4015,2.4015,2.4064,2.4065,2.4065]}]]